Theta_e
310 311 311 311 310 311 310 309 310 310 310 310 309 309 309 308 309 309 308 302 304 308 304 307 303 302 300 300 303 305 305 306 307 307 306 306 308 308 307 308 303 299 300 301 302
310 310 310 309 309 309 309 309 309 309 310 310 309 309 309 308 308 308 306 306 307 306 305 305 304 300 297 300 302 303 304 307 306 307 307 307 306 308 308 308 305 300 298 301 303
309 309 309 309 309 309 309 309 309 308 309 309 308 308 308 308 307 305 307 305 304 304 303 304 301 299 298 300 301 303 306 305 307 306 306 306 306 307 306 308 307 304 298 298 300
309 309 309 309 309 309 309 309 309 308 309 309 308 307 307 308 304 300 302 301 300 301 302 300 298 298 299 299 301 304 304 305 306 305 305 305 304 305 306 304 304 303 298 296 297
309 309 309 309 309 308 308 308 308 308 307 307 307 305 305 305 303 297 295 295 295 296 297 297 297 298 300 300 300 301 303 304 304 303 303 303 304 304 301 300 299 298 298 296 296
309 309 308 308 308 307 307 306 305 306 308 307 306 305 306 305 295 295 295 295 295 296 296 296 297 298 298 299 300 302 302 303 302 302 303 302 302 303 301 300 300 299 297 296 296
308 308 307 308 307 304 302 301 302 303 307 307 305 305 304 303 296 296 296 296 295 295 296 297 297 298 297 299 299 300 301 300 301 301 302 301 301 302 300 301 301 300 299 297 296
307 307 306 306 303 298 296 299 298 299 304 306 304 305 301 296 296 296 296 295 295 295 295 296 297 298 298 298 298 299 298 298 300 300 299 300 300 299 298 299 300 300 299 298 297
306 304 301 301 298 297 296 300 298 297 299 301 304 303 298 296 296 296 296 296 296 296 295 296 297 297 298 297 296 297 296 297 300 299 298 299 299 298 298 299 299 298 298 298 297
305 303 299 299 298 297 297 297 299 301 301 302 301 297 297 297 296 296 296 296 296 295 296 296 295 295 295 294 296 298 297 298 299 298 297 298 297 297 296 296 295 296 297 297 297
305 304 300 299 297 298 298 299 297 298 298 296 296 297 297 296 296 297 296 296 296 296 295 296 294 295 295 295 297 299 300 299 295 295 297 296 298 298 296 295 294 293 292 292 297
304 303 299 298 297 298 297 295 294 295 299 297 296 296 296 296 297 296 297 296 296 295 296 296 295 295 296 298 298 298 299 300 295 296 296 298 297 294 294 293 292 292 291 291 291
303 300 298 297 298 297 295 293 293 296 298 297 297 296 296 296 296 296 296 295 296 297 297 296 296 295 295 295 298 298 298 300 299 297 297 297 297 296 292 290 291 290 290 290 289
301 298 296 297 300 298 294 294 293 296 299 298 297 297 297 297 296 296 296 296 296 296 296 293 294 295 295 293 294 299 294 297 298 298 300 296 297 296 292 290 289 289 288 288 288
299 296 297 298 298 295 295 294 294 297 298 298 297 297 296 297 297 297 295 296 296 296 295 294 293 294 295 293 293 295 295 297 298 296 297 300 301 293 293 289 287 285 289 288 287
298 296 296 296 298 296 295 295 297 303 297 297 297 295 295 296 297 296 294 292 294 297 292 292 292 291 291 292 292 293 295 296 298 297 293 297 301 297 291 290 287 285 291 290 286
298 297 296 296 295 295 295 296 300 295 296 296 295 294 294 294 296 294 292 290 289 291 298 294 293 291 291 293 292 293 294 294 298 294 294 293 299 287 289 287 287 287 290 290 285
298 298 296 295 296 297 296 294 294 297 295 294 294 294 295 292 293 292 293 289 289 290 293 299 295 288 289 291 293 293 295 302 302 292 295 294 289 291 290 289 288 286 287 287 284
300 301 296 294 295 297 292 293 295 294 293 293 293 293 294 292 290 293 290 287 288 287 284 291 296 291 291 290 292 292 291 290 294 297 296 292 291 292 290 288 287 289 289 287 286
300 301 297 295 297 297 292 295 293 291 292 293 293 291 291 288 288 290 288 288 287 288 287 286 286 292 290 290 290 291 289 294 293 297 303 293 291 289 285 288 288 286 286 286 285
301 298 296 295 295 290 292 292 292 289 288 291 291 288 288 285 285 289 285 286 286 288 288 287 282 289 291 283 286 291 294 288 290 291 292 292 285 283 285 286 286 284 287 286 283
296 296 294 296 289 287 290 291 291 288 287 287 287 286 287 285 285 288 288 287 286 288 290 290 282 288 287 280 278 279 284 285 291 291 290 291 283 284 284 284 284 283 286 284 285
292 293 295 293 290 289 291 291 289 288 286 286 286 286 285 286 286 287 288 287 286 287 288 289 286 284 284 282 285 281 278 274 277 281 284 286 282 282 286 282 281 279 277 277 282
291 292 289 286 286 289 290 289 290 287 286 287 286 285 285 286 286 286 287 287 287 286 290 286 283 284 283 283 288 283 282 274 274 279 277 281 281 284 281 281 282 278 277 276 278
289 290 291 292 290 289 289 288 288 288 286 286 286 286 284 281 285 286 286 287 286 287 286 285 281 285 283 287 287 286 286 279 277 274 281 278 279 280 278 278 278 278 282 284 284
290 290 288 289 290 289 289 288 287 288 286 287 286 286 285 282 281 278 283 286 286 285 284 284 284 286 286 287 287 287 288 285 282 275 274 275 279 275 276 273 277 280 283 284 285
293 293 292 291 291 288 286 288 287 286 287 286 286 285 286 286 284 283 284 284 282 282 282 280 282 284 288 287 286 284 283 284 280 275 278 281 279 277 279 281 279 277 275 281 284
Wind_Speed
19 19 19 19 19 18 18 17 17 15 14 13 11 10 9 7 9 10 6 7 7 7 5 2 4 5 5 3 4 1 1 5 5 7 5 7 3 2 5 8 5 4 4 1 31
20 19 19 19 18 18 17 16 15 15 13 12 10 9 8 6 9 11 9 7 8 6 5 4 4 5 2 4 4 5 4 6 5 6 5 3 2 3 4 4 4 5 10 20 22
21 20 20 18 18 17 17 15 14 13 11 11 9 8 5 4 3 3 6 7 5 5 7 4 6 6 4 3 5 5 6 6 3 3 1 1 3 2 6 2 4 6 12 11 18
21 20 20 19 18 17 16 14 13 12 11 9 7 6 3 1 3 3 4 5 6 5 4 3 3 5 5 7 7 3 7 9 7 3 2 1 4 3 4 2 1 9 17 8 12
22 20 19 19 19 18 16 15 13 11 8 7 5 3 1 2 5 3 2 2 3 4 6 4 5 4 5 5 6 6 7 5 3 5 5 4 2 2 4 7 11 16 11 11 9
21 20 21 20 19 18 17 15 14 10 7 5 3 2 1 3 2 0 1 2 4 6 4 6 6 3 5 5 6 3 6 10 8 6 2 3 1 1 4 8 12 12 10 8 9
21 21 21 20 20 17 17 15 13 8 4 3 2 4 3 6 2 1 3 3 3 3 3 10 7 4 4 4 4 3 1 5 4 7 3 5 4 4 6 7 10 10 10 9 7
23 22 22 22 20 17 17 11 11 5 1 2 4 3 4 3 2 1 2 4 2 4 4 3 3 1 2 5 4 3 4 2 3 8 1 7 5 4 2 9 8 9 9 8 6
26 20 21 24 16 17 13 7 7 6 4 5 3 3 5 1 1 2 4 4 5 3 2 1 2 4 2 2 4 2 4 5 4 8 6 4 3 1 5 7 8 8 8 8 7
26 22 18 22 17 16 11 5 2 2 1 1 8 1 1 2 1 2 2 2 3 3 0 2 1 2 2 4 5 5 5 4 6 5 5 6 3 5 9 13 10 7 7 8 8
28 24 13 19 16 14 12 3 4 3 2 1 1 1 2 5 1 2 6 4 3 3 4 3 3 5 8 7 5 4 3 2 0 1 5 6 6 10 10 15 13 12 13 12 2
30 22 11 18 14 11 6 4 2 1 2 3 1 1 1 3 0 6 12 2 3 6 3 3 4 3 2 1 5 4 3 3 4 3 4 12 10 11 13 8 11 11 11 12 13
28 16 12 18 7 6 10 5 1 1 1 1 2 2 5 4 2 5 5 5 4 3 5 6 2 1 1 3 3 2 4 3 4 2 3 10 3 3 5 11 12 13 9 10 8
22 13 19 15 3 4 4 8 1 1 3 1 1 4 5 1 2 1 6 2 4 0 2 4 1 1 1 3 2 5 1 4 5 3 4 3 4 3 3 9 11 10 9 9 9
13 20 15 12 4 4 7 5 2 1 3 2 3 5 9 4 2 6 15 6 2 4 4 1 3 4 4 1 2 2 2 4 2 4 4 1 3 2 4 7 6 7 8 8 8
7 15 17 9 4 6 11 1 2 3 2 5 3 6 7 6 3 7 7 7 3 2 5 3 3 3 1 1 2 1 4 5 3 3 1 6 5 2 1 1 3 4 8 7 8
3 11 14 10 6 13 1 2 4 5 5 7 5 6 6 4 3 5 5 8 4 5 4 2 3 3 4 1 2 5 4 2 2 1 5 3 4 3 2 2 4 3 8 9 7
4 4 15 13 13 10 2 4 7 4 4 4 5 12 3 7 5 6 3 4 7 5 3 2 2 3 6 1 3 2 3 2 6 4 3 3 4 3 5 6 5 4 3 7 7
7 1 14 24 13 7 5 6 1 3 4 5 11 3 3 3 3 5 4 4 3 5 3 4 2 1 1 2 1 4 1 3 2 1 3 4 3 6 6 7 7 7 7 8 7
8 1 10 24 11 5 5 5 3 1 4 3 4 6 6 6 7 4 3 4 6 6 2 3 3 2 1 2 3 3 2 2 2 3 4 3 3 3 2 5 6 7 6 5 7
3 3 21 20 9 6 4 3 3 5 6 3 4 4 4 4 4 2 2 3 5 6 5 1 3 5 3 3 1 3 2 3 1 2 3 4 3 3 4 3 4 5 6 3 4
8 3 27 10 5 3 2 2 4 5 5 5 3 4 3 4 3 3 2 1 6 4 3 2 4 1 2 4 4 3 3 2 3 3 1 3 2 2 6 3 2 3 5 3 5
3 2 16 13 4 2 2 3 2 4 4 4 4 3 3 2 1 4 3 3 5 4 1 3 1 2 5 5 3 4 3 3 3 2 1 3 3 2 4 3 2 1 5 4 1
3 4 4 5 2 4 2 2 2 0 2 3 2 4 4 5 3 2 3 1 0 3 5 2 1 4 4 5 1 2 3 2 4 3 2 2 3 3 1 1 3 3 2 4 3
5 2 2 4 4 3 2 1 2 1 4 5 3 4 1 2 5 3 4 4 1 10 3 3 2 2 3 2 2 3 2 1 3 4 4 5 6 5 5 5 4 4 1 2 3
2 3 4 3 4 3 2 1 2 2 2 3 2 4 3 3 6 4 2 2 2 5 5 4 1 2 2 2 4 2 4 6 4 2 5 4 0 6 5 0 2 4 3 0 2
4 3 1 4 5 2 2 1 2 1 0 3 1 2 3 1 3 5 3 3 4 2 3 2 2 2 2 2 2 3 5 3 2 2 6 3 6 4 1 2 3 5 3 3 1
Wind_Direction
346 344 340 336 332 328 323 318 312 309 308 306 304 300 292 282 286 287 240 213 199 170 183 155 189 223 255 246 214 326 207 228 203 203 249 298 278 71 342 111 57 40 75 168 150
346 343 339 334 331 328 323 317 311 305 299 300 300 298 292 285 287 262 240 195 158 170 188 200 222 208 220 217 213 170 172 224 215 219 230 262 49 141 143 100 72 70 71 108 134
345 341 336 333 331 328 326 322 316 308 298 296 297 299 292 287 269 222 153 190 187 212 206 249 262 176 202 229 221 200 193 222 289 149 181 181 24 355 112 86 154 172 147 139 130
343 339 336 334 332 329 326 323 317 315 302 296 293 295 286 245 264 159 169 223 225 215 197 232 235 174 194 213 222 247 216 229 252 162 124 64 285 52 76 127 89 137 148 134 138
344 340 337 335 333 329 326 323 318 309 306 295 289 283 171 214 255 199 193 241 231 189 208 219 209 187 194 219 238 231 240 248 222 137 126 107 43 99 105 108 99 111 118 134 133
343 341 339 337 335 332 328 323 315 302 285 279 278 191 234 249 154 346 316 278 216 204 221 216 226 229 252 257 180 277 192 239 170 169 92 120 51 36 135 139 106 112 122 132 143
346 344 343 340 336 335 335 331 331 304 270 255 226 180 264 245 175 242 312 280 229 214 269 259 250 193 352 306 270 160 95 333 156 159 129 97 325 211 154 124 120 123 130 135 150
347 348 347 345 340 344 343 347 356 345 190 180 171 194 253 224 185 228 311 253 227 242 258 313 70 39 222 307 331 121 75 163 241 144 168 117 256 340 357 127 126 123 131 134 146
347 343 347 350 349 348 348 352 19 49 100 135 155 190 305 98 105 348 338 333 188 218 247 250 112 192 145 108 5 314 191 194 262 176 134 138 228 322 15 93 122 114 121 126 107
342 338 341 349 349 353 351 345 5 52 72 267 276 32 323 36 347 305 300 296 257 181 255 184 164 123 63 106 202 208 202 206 187 162 109 134 117 57 22 60 55 65 109 127 134
341 337 331 343 348 357 351 338 18 6 272 154 329 226 49 344 306 73 356 325 268 180 209 227 107 202 227 221 210 157 127 112 154 286 118 138 80 54 46 48 46 43 44 24 32
340 341 339 345 346 6 26 62 80 222 340 244 246 104 140 2 318 357 359 197 197 223 212 13 222 201 258 53 165 168 160 137 4 9 90 102 80 58 45 51 46 37 33 27 26
341 352 354 341 351 17 69 48 359 80 152 77 83 55 285 1 69 352 26 326 240 259 242 172 184 217 153 66 150 131 159 129 156 177 52 122 86 61 57 51 40 33 24 27 20
351 17 350 349 78 8 63 351 38 108 87 343 78 358 325 195 69 356 347 245 316 156 31 122 318 169 147 98 308 169 346 117 132 115 180 112 223 158 105 54 34 22 19 4 357
10 16 17 31 14 51 327 332 69 63 59 336 40 8 337 61 16 1 44 5 15 351 54 275 26 17 76 85 340 142 39 107 92 95 91 258 101 291 174 29 9 358 8 2 343
22 20 27 23 56 355 331 103 110 55 268 341 43 2 3 356 48 7 23 22 19 338 51 88 43 55 5 74 34 132 86 57 54 80 15 213 144 168 10 138 334 350 17 4 345
19 35 25 21 334 331 27 80 44 89 355 355 336 346 333 324 40 39 68 42 31 27 29 110 32 5 24 83 18 53 85 49 58 19 215 321 96 226 139 116 104 35 9 357 349
324 3 19 9 349 1 93 61 71 37 357 0 311 309 97 20 343 20 57 31 10 32 324 322 298 8 328 93 183 169 159 171 198 194 222 23 156 165 119 84 62 47 349 4 354
327 326 16 356 350 335 73 54 115 5 327 315 314 2 37 -0 25 77 62 3 27 41 116 354 60 300 337 357 29 281 133 205 92 337 92 118 43 100 80 61 37 22 10 24 6
331 216 1 359 11 74 68 103 105 46 321 324 337 35 10 5 11 39 33 333 337 2 81 263 9 293 121 351 357 123 205 67 334 198 203 106 134 145 56 53 36 2 357 22 10
346 55 352 -0 49 51 85 83 79 51 18 24 356 337 5 1 334 31 285 283 2 313 301 220 101 304 67 12 201 1 25 1 102 152 172 142 250 192 124 66 43 339 342 38 17
349 38 2 14 50 60 62 55 34 7 1 9 75 15 360 353 328 37 112 96 7 348 7 300 145 60 228 262 178 164 176 114 124 284 52 97 248 167 127 137 121 346 11 26 44
4 308 19 31 70 55 137 90 92 32 11 22 20 4 2 299 20 23 94 97 32 16 70 331 35 28 353 353 2 70 327 114 99 65 283 115 226 195 115 84 333 36 341 318 84
38 12 341 33 40 96 51 23 137 77 109 22 354 60 6 6 326 308 25 232 8 319 18 50 27 145 177 215 186 54 354 40 111 100 203 187 165 120 152 155 298 322 328 336 247
21 6 61 323 355 27 78 3 38 25 4 29 113 49 117 16 338 45 19 339 79 359 35 83 110 90 250 188 104 173 144 38 93 195 127 210 143 202 204 212 236 232 274 26 12
66 6 346 292 291 17 355 101 70 49 72 354 70 335 307 154 177 236 58 27 41 332 11 4 304 94 299 288 152 121 137 123 119 101 66 108 12 203 232 183 290 279 288 323 347
15 336 94 287 313 54 235 124 102 68 212 151 171 5 357 224 237 238 223 260 207 134 334 47 77 45 311 216 348 333 214 153 160 181 145 145 214 179 268 173 275 293 280 249 108